Regional Weather Roundup
Issued by NWS

Home | Current Version | Previous Version | Text Only | Print | Product List | Glossary On
Versions: 1 2 3 4 5 6 7 8 9 10 11 12 13 14 15 16 17 18 19 20 21 22 23 24 25 26 27
000
ASUS45 KTFX 301910
RWRMT
MONTANA REGIONAL WEATHER ROUNDUP
NATIONAL WEATHER SERVICE GREAT FALLS MT
100 PM MDT SAT APR 30 2016

NOTE: "FAIR" INDICATES FEW OR NO CLOUDS BELOW 12000 FEET WITH NO
SIGNIFICANT WEATHER AND/OR OBSTRUCTIONS TO VISIBILITY.

MTZ001>007-043-302000-
WEST OF THE DIVIDE

CITY           SKY/WX    TMP DP  RH WIND       PRES   REMARKS
KALISPELL      SUNNY     61  31  32 N5        30.18S
MISSOULA       CLOUDY    50  41  71 W5        30.23R
BUTTE          CLOUDY    43  33  68 CALM      30.16S
MULLAN PASS    CLOUDY    40  31  70 CALM      30.21R
ANACONDA         N/A     45  34  65 N8        30.16S
DEER LODGE       N/A     48  34  57 N10       30.18S
EUREKA           N/A     59  36  41 N5        30.21S
HAMILTON         N/A     45  37  76 CALM      30.21S
LIBBY            N/A     59  34  38 CALM      30.20S
PLAINS           N/A     52  43  71 CALM      30.22S
THOMPSON FALLS   N/A     56  42  59 NE13      30.23F
$$

MTZ008-052>055-302000-
SOUTHWEST MONTANA

CITY           SKY/WX    TMP DP  RH WIND       PRES   REMARKS
BOZEMAN        CLOUDY    49  33  54 CALM      30.16R
DILLON         CLOUDY    48  31  51 NE10      30.11S
ENNIS          CLOUDY    46  32  57 N21G29    30.15S
THREE FORKS      N/A     51  27  39 NW6       30.13S
TWIN BRIDGES     N/A     51  28  41 NW20      30.09S
$$

MTZ009-010-012-014-046-048-049-054-302000-
EAST SLOPES AND CENTRAL MONTANA

CITY           SKY/WX    TMP DP  RH WIND       PRES   REMARKS
CUT BANK       CLOUDY    50  35  56 E8        30.25S
GREAT FALLS    CLOUDY    52  36  54 NE8       30.21S
MALMSTROM AFB  PTSUNNY   52  37  57 N8        30.22R
HELENA         CLOUDY    52  33  48 N5        30.17S
CHOTEAU          N/A     50  37  62 NE8       30.24R
CONRAD           N/A     50  43  77 N5        30.24S
$$

MTZ011-013-016-021-045-047-050-051-302000-
NORTH CENTRAL MONTANA

CITY           SKY/WX    TMP DP  RH WIND       PRES   REMARKS
HAVRE          CLOUDY    56  40  55 NE8       30.25S
LEWISTOWN      CLOUDY    48  33  56 SE6       30.23R
N BAR RANCH    CLOUDY    46  34  61 SE8       30.24S
CHINOOK          N/A     57  37  47 NE6       30.25S
$$

MTZ017>020-022>027-061-062-302000-
NORTHEAST MONTANA

CITY           SKY/WX    TMP DP  RH WIND       PRES   REMARKS
GLASGOW        SUNNY     59  29  31 E13G24    30.25S
JORDAN           N/A     59  33  37 E7        30.22R
SIDNEY         MOSUNNY   61  30  31 E18G24    30.24F
WOLF POINT     SUNNY     62  31  31 E10       30.25F
PLENTYWOOD       N/A     57  27  30 E13G18    30.27S
POPLAR           N/A     59  28  31 E18       30.25F
SCOBEY           N/A     61  27  27 E13       30.24F
$$

MTZ028>42-056>058-302000-
SOUTHCENTRAL AND SOUTHEAST MONTANA

CITY           SKY/WX    TMP DP  RH WIND       PRES   REMARKS
BAKER          CLOUDY    53  31  42 E20       30.20R
BILLINGS       CLOUDY    50  35  56 E12       30.20R
LIVINGSTON     CLOUDY    42  35  76 E16       30.18R
MILES CITY     CLOUDY    57  31  37 E13       30.19S
EKALAKA          N/A     54  32  43 E14       30.14S
FORSYTH          N/A     54  34  47 E14       30.20S
LAUREL           N/A     48  30  50 NE6       30.17R
ROUNDUP          N/A     51  34  52 E1        30.11S
$$

REGIONAL REPORTS...DAKOTAS

CITY           SKY/WX    TMP DP  RH WIND       PRES   REMARKS
WILLISTON      SUNNY     61  27  27 E18G24    30.26S
MINOT          MOSUNNY   64  27  24 NE12G25   30.24F
DICKINSON      CLOUDY    53  30  41 NE16      30.19R
BEACH          PTSUNNY   55  27  33 E18       30.24S
CROSBY           N/A     59  27  29 E17G25    30.30S
WATFORD CITY     N/A     59  27  29 E17       30.25S
BISMARCK       SUNNY     59  31  34 NE25      30.19F
GRAND FORKS    MOSUNNY   61  30  31 NE20G30   30.22F
FARGO          CLOUDY    62  28  27 NE22G30   30.15F
BUFFALO SD       N/A     52  32  46 NE20      30.09S
RAPID CITY     CLOUDY    47  37  68 NE20G26   30.08F
$$

REGIONAL REPORTS...WYOMING/IDAHO/WASHINGTON

CITY           SKY/WX    TMP DP  RH WIND       PRES   REMARKS
GILLETTE       CLOUDY    46  34  62 NE15      30.14R
SHERIDAN       CLOUDY    44  36  73 CALM      30.19R
BUFFALO WY       N/A    N/A N/A N/A MISG      30.17S
CODY           CLOUDY    45  34  65 N16G23    30.13R
YELLOWSTONE LA   N/A     41  22  46 VRB6      30.10R
IDAHO FALLS    CLOUDY    57  31  37 NE9       30.02F
SALMON         CLOUDY    50  32  50 N7        30.12S
BOISE          MOSUNNY   65  37  35 NW18G26   30.02F
SPOKANE        PTSUNNY   54  43  66 NE7       30.23S
$$

REGIONAL REPORTS...ALBERTA

CITY           SKY/WX    TMP DP  RH WIND       PRES   REMARKS
EDMONTON       CLOUDY    59  32  36 S7        30.21S
CALGARY        PTSUNNY   52  30  43 VRB3      30.26S
LETHBRIDGE     CLOUDY    54  37  54 E9        30.25S
MEDICINE HAT   CLOUDY    55  39  54 W5        30.26S
$$

REGIONAL REPORTS...SASKATCHEWAN

CITY           SKY/WX    TMP DP  RH WIND       PRES   REMARKS
SWIFT CURRENT  MOSUNNY   61  27  27 SE14G21   30.27S
REGINA         MOSUNNY   63  23  22 E12G21    30.30F
SASKATOON      MOSUNNY   64  25  22 SE8       30.31F
$$




USA.gov is the U.S. government's official web portal to all federal, state and local government web resources and services.